(103) Hera
ephemeris date magn radius delta ra dec elong phase
Today25 Aug 202613.52.860 AU3.729 AU11h57m+03°49'26.6°9.1°
Opposition26 May 202711.22.650 AU1.644 AU16h21m-13°06'171.7°3.2°
(103) Hera - 2026-08-25
astro.vanbuitenen.nl


 
-1 year
-1 month
-1 day
Now
+1 day
+1 month
+1 year

The interactive orbit chart above shows the body's path through the solar system and its position at the given date. Green and blue lines are shown perpendicular to the ecliptic plane: Green if the path is above the ecliptic plane, blue if it is below. (Left-click and drag to rotate the view; Right-click and drag to move the view; Use scroll wheel to zoom in our out.)

The orbital elements of Hera are:

            e (Eccentricity)                : 0.0816151
            a (Semimajor axis)              : 2.7013557
            i (Inclination)                 : 5.42727
            Ω (Longitude of ascending node) : 135.95401
            ω (Argument of perihelion)      : 190.41997
            M (Mean anomaly)                : 209.95297
            Epoch                           : 2026 Jun 09

            L (Longitude of perihelion)     : 146.32828
            B (Latitude of perihelion)      : -0.98017
            P (Orbital period in years)     : 4.44            
        

The light curve chart below shows the estimated development of the minor planet's magnitude.


The all-sky chart below shows the path of the minor planet over the same period as the light curve. The current position is marked yellow.





The following chart shows the path of the minor planet in the next few days. The field of view is optimized for (~10x50) binoculars and finderscopes.




Ephemerides:
Date       Time       RA (2000)    DEC (2000)    delta   radius  elong  phase   PA    magn
2026-08-25 00:00 UT   11 57 14.7   +03 49 32     3.729    2.860   26.6    9.1   107   13.5 
2026-08-25 16:49 UT   11 58 14.3   +03 43 15     3.732    2.860   26.2    9.0   107   13.5 
2026-08-26 00:00 UT   11 58 39.8   +03 40 34     3.734    2.860   26.0    8.9   107   13.5 
2026-08-27 00:00 UT   12 00 05.0   +03 31 36     3.739    2.859   25.4    8.7   107   13.5 
2026-08-28 00:00 UT   12 01 30.3   +03 22 36     3.744    2.859   24.8    8.5   106   13.5 
2026-08-29 00:00 UT   12 02 55.9   +03 13 36     3.749    2.858   24.3    8.4   106   13.5 
2026-08-30 00:00 UT   12 04 21.5   +03 04 35     3.753    2.858   23.7    8.2   106   13.5 
2026-08-31 00:00 UT   12 05 47.4   +02 55 32     3.758    2.857   23.1    8.0   106   13.4 
2026-09-01 00:00 UT   12 07 13.4   +02 46 30     3.762    2.856   22.6    7.8   106   13.4 
2026-09-02 00:00 UT   12 08 39.5   +02 37 26     3.767    2.856   22.0    7.6   105   13.4 
2026-09-03 00:00 UT   12 10 05.8   +02 28 22     3.771    2.855   21.4    7.4   105   13.4 
2026-09-04 00:00 UT   12 11 32.3   +02 19 17     3.775    2.855   20.8    7.2   105   13.4 
2026-09-05 00:00 UT   12 12 58.9   +02 10 12     3.779    2.854   20.3    7.0   105   13.4 
2026-09-06 00:00 UT   12 14 25.7   +02 01 06     3.782    2.854   19.7    6.8   104   13.4 
2026-09-07 00:00 UT   12 15 52.6   +01 51 59     3.786    2.853   19.1    6.7   104   13.4 
2026-09-08 00:00 UT   12 17 19.7   +01 42 52     3.789    2.852   18.6    6.5   104   13.4 
2026-09-09 00:00 UT   12 18 46.9   +01 33 45     3.793    2.852   18.0    6.3   103   13.4 
2026-09-10 00:00 UT   12 20 14.2   +01 24 37     3.796    2.851   17.4    6.1   103   13.4 
2026-09-11 00:00 UT   12 21 41.8   +01 15 29     3.799    2.851   16.9    5.9   102   13.4 
2026-09-12 00:00 UT   12 23 09.4   +01 06 20     3.802    2.850   16.3    5.7   102   13.4 
2026-09-13 00:00 UT   12 24 37.2   +00 57 12     3.805    2.849   15.8    5.5   101   13.4 
2026-09-14 00:00 UT   12 26 05.1   +00 48 03     3.808    2.849   15.2    5.3   101   13.3 
2026-09-15 00:00 UT   12 27 33.1   +00 38 54     3.810    2.848   14.6    5.1   100   13.3 


    Terminology:
            
    delta:  distance between minor planet and earth in AU
    radius: distance between minor planet and sun in AU
    magn:   magnitude (brightness) estimate    
    ra:     right ascension in hours (24h = 360deg)
    dec:    declination in degrees
    elong:  elongation in degrees (angle sun-earth-minor planet)    
    phase:  phase angle in degrees (angle sun-minor planet-earth)        
    AU:     Astronomical Unit (mean distance between earth and sun: 149597870.7 km
    

Orbital elements provided by the MPC (Minor Planet Center).
Calculations by a modified version of AAPlus, a C# implementation of the AA+ project by PJ Naughter from the algorithms presented in the book "Astronomical Algorithms" by Jean Meeus.
NGC2000 dso catalog and star labels from VizieR as provided by the Strasbourg astronomical Data Center.
Tycho2 catalog from the ESO archive.